Starlink 3447

operational
NORAD ID: 51736 Int'l Des: 2022-016 Owner: SPXS Country: US Constellation: starlink
LEOCIRCULAR

Über Starlink 3447

Beschreibung wird geladen...

Live-Position

3D-Globus wird geladen...

Nächste Überflüge

Höhenverlauf

Altitude vs Time

uPlot chart will show altitude changes over time

Zweizeiliger Elementsatz

1 51736U 22016Y 25340.51956545 .00006478 00000-0 42471-3 0 9993
2 51736 53.2175 17.4645 0001390 98.4572 261.6577 15.08840040209490
Epoch: 6. Dez. 2025 • Age: 27 hours

Aktueller Status

Höhe 545.7 km
Geschwindigkeit 7.59 km/s
Subsatellitenpunkt -19.59°S, 49.64°E
Startdatum 21. Feb. 2022
Alter 3.7 years
Typ internet

Technische Details

Klassifizierung Payload
Masse 297.00 kg
Trockenmasse 275.00 kg
Gesamtmasse 297.00 kg
Länge 0.20 m
Durchmesser 2.80 m
Spannweite 9.00 m
Form Box + pan
Hersteller SPXS
Bus-Typ Starlink
Phasenstatus In Orbit
Besitzer/Staat SPXS/US

Große Konstellationen

Loading constellations...